Saginaw, MI

4:34 PM EDT on August 24, 2016 (GMT -0400)
Saginaw County-Browne

Weather History for KHYX - September, 2013

Change the Weather History Date:

Wednesday, September 18, 2013

  Actual Average (KMBS) Record (KMBS)
Temperature  
Mean Temperature 57 °F 60 °F  
Max Temperature 77 °F 71 °F 84 °F (2007)
Min Temperature 37 °F 50 °F 41 °F (1999)
Degree Days  
Heating Degree Days 8    
Month to date heating degree days  
Since 1 July heating degree days  
Cooling Degree Days 0    
Month to date cooling degree days  
Year to date cooling degree days  
Growing Degree Days 7 (Base 50)    
Moisture  
Dew Point 45 °F    
Average Humidity 65    
Maximum Humidity 100    
Minimum Humidity 32    
Precipitation  
Precipitation 0.00 in 0.13 in 1.21 in (2015)
Month to date precipitation 2.32  
Year to date precipitation 22.84  
Snow  
Snow 0.00 in - - ()
Month to date snowfall  
Since 1 July snowfall  
Since 1 September snowfall  
Snow Depth -    
Sea Level Pressure  
Sea Level Pressure 30.11 in    
Wind  
Wind Speed 4 mph (South)    
Max Wind Speed 14 mph    
Max Gust Speed 18 mph    
Visibility 10 miles    
Events      
T = Trace of Precipitation, MM = Missing Value Source: NWS Daily Summary

Daily Weather History Graph

Daily Weather History Graph

Search for Another Location

Airport or City:

Trip Planner

Search our weather history database for the weather conditions in past years. The results will help you decide how hot, cold, wet, or windy it might be!

Date:

Astronomy

Sep. 18, 2013 Rise Set
Actual Time 7:18 AM EDT 7:39 PM EDT
Civil Twilight 6:49 AM EDT 8:08 PM EDT
Nautical Twilight 6:16 AM EDT 8:41 PM EDT
Astronomical Twilight 5:41 AM EDT 9:16 PM EDT
Moon 7:01 PM EDT (9/18) 6:19 AM EDT (9/18)
Length of Visible Light 13h 18m
Length of Day
12h 21m
Waxing Gibbous, 99% of the Moon is Illuminated
Sep 18
Waxing Gibbous
Sep 19
Full
Sep 26
Last Quarter
Oct 4
New
Oct 11
First Quarter

Hourly Weather History & Observations

Time (EDT) Temp. Windchill Dew Point Humidity Pressure Visibility Wind Dir Wind Speed Gust Speed Precip Events Conditions
12:14 AM 46.4 °F 44.3 °F 39.2 °F 76% 30.23 in 10.0 mi South 4.6 mph - N/A   Clear
12:34 AM 46.4 °F 44.3 °F 39.2 °F 76% 30.22 in 10.0 mi SSE 4.6 mph - N/A   Clear
12:54 AM 46.4 °F - 39.2 °F 76% 30.22 in 10.0 mi Calm Calm - N/A   Clear
1:14 AM 44.6 °F 43.1 °F 37.4 °F 76% 30.21 in 10.0 mi SE 3.5 mph - N/A   Clear
1:34 AM 44.6 °F - 37.4 °F 76% 30.21 in 10.0 mi Calm Calm - N/A   Clear
1:54 AM 42.8 °F - 39.2 °F 87% 30.21 in 10.0 mi Calm Calm - N/A   Clear
2:14 AM 42.8 °F - 37.4 °F 81% 30.21 in 10.0 mi Calm Calm - N/A   Clear
2:34 AM 42.8 °F - 39.2 °F 87% 30.21 in 10.0 mi Calm Calm - N/A   Clear
2:54 AM 41.0 °F - 37.4 °F 87% 30.19 in 10.0 mi Calm Calm - N/A   Clear
3:14 AM 42.8 °F - 37.4 °F 81% 30.19 in 10.0 mi Calm Calm - N/A   Clear
3:34 AM 41.0 °F - 37.4 °F 87% 30.18 in 10.0 mi Calm Calm - N/A   Clear
3:54 AM 41.0 °F - 37.4 °F 87% 30.18 in 10.0 mi Calm Calm - N/A   Clear
4:15 AM 41.0 °F - 37.4 °F 87% 30.18 in 10.0 mi Calm Calm - N/A   Clear
4:34 AM 41.0 °F - 37.4 °F 87% 30.17 in 10.0 mi Calm Calm - N/A   Clear
4:54 AM 41.0 °F - 37.4 °F 87% 30.17 in 10.0 mi Calm Calm - N/A   Clear
5:15 AM 39.2 °F - 37.4 °F 93% 30.17 in 10.0 mi Calm Calm - N/A   Clear
5:34 AM 41.0 °F - 39.2 °F 93% 30.17 in 10.0 mi Calm Calm - N/A   Clear
5:54 AM 39.2 °F - 37.4 °F 93% 30.17 in 10.0 mi Calm Calm - N/A   Clear
6:15 AM 41.0 °F - 39.2 °F 93% 30.17 in 10.0 mi Calm Calm - N/A   Clear
6:34 AM 37.4 °F - 35.6 °F 93% 30.17 in 10.0 mi Calm Calm - N/A   Clear
6:54 AM 37.4 °F - 37.4 °F 100% 30.16 in 10.0 mi Calm Calm - N/A   Clear
7:15 AM 39.2 °F - 37.4 °F 93% 30.16 in 10.0 mi Calm Calm - N/A   Clear
7:34 AM 39.2 °F - 39.2 °F 100% 30.17 in 10.0 mi Calm Calm - N/A   Clear
7:54 AM 41.0 °F - 41.0 °F 100% 30.17 in 10.0 mi Calm Calm - N/A   Clear
8:15 AM 44.6 °F - 44.6 °F 100% 30.16 in 10.0 mi Calm Calm - N/A   Clear
8:34 AM 50.0 °F - 48.2 °F 94% 30.16 in 10.0 mi Calm Calm - N/A   Clear
8:54 AM 51.8 °F - 50.0 °F 94% 30.16 in 10.0 mi Calm Calm - N/A   Clear
9:15 AM 55.4 °F - 51.8 °F 88% 30.16 in 10.0 mi South 3.5 mph - N/A   Clear
9:34 AM 55.4 °F - 50.0 °F 82% 30.16 in 10.0 mi South 3.5 mph - N/A   Clear
9:54 AM 59.0 °F - 50.0 °F 72% 30.16 in 10.0 mi South 4.6 mph - N/A   Clear
10:15 AM 62.6 °F - 51.8 °F 68% 30.16 in 10.0 mi SSW 6.9 mph - N/A   Clear
10:34 AM 64.4 °F - 50.0 °F 59% 30.16 in 10.0 mi SSW 9.2 mph - N/A   Clear
10:54 AM 66.2 °F - 51.8 °F 60% 30.15 in 10.0 mi South 8.1 mph - N/A   Clear
11:15 AM 68.0 °F - 50.0 °F 52% 30.14 in 10.0 mi SW 8.1 mph - N/A   Clear
11:34 AM 69.8 °F - 50.0 °F 49% 30.14 in 10.0 mi SW 8.1 mph - N/A   Clear
11:54 AM 69.8 °F - 51.8 °F 53% 30.13 in 10.0 mi SSW 6.9 mph - N/A   Clear
12:15 PM 71.6 °F - 50.0 °F 46% 30.12 in 10.0 mi South 6.9 mph - N/A   Clear
12:34 PM 71.6 °F - 50.0 °F 46% 30.11 in 10.0 mi SW 6.9 mph - N/A   Clear
12:54 PM 73.4 °F - 50.0 °F 44% 30.10 in 10.0 mi SSE 9.2 mph - N/A   Clear
1:15 PM 73.4 °F - 48.2 °F 41% 30.09 in 10.0 mi SSW 10.4 mph - N/A   Clear
1:34 PM 75.2 °F - 46.4 °F 36% 30.09 in 10.0 mi SSW 9.2 mph - N/A   Clear
1:54 PM 75.2 °F - 44.6 °F 34% 30.09 in 10.0 mi SSW 9.2 mph - N/A   Clear
2:15 PM 75.2 °F - 46.4 °F 36% 30.08 in 10.0 mi South 12.7 mph - N/A   Clear
2:34 PM 77.0 °F - 44.6 °F 32% 30.07 in 10.0 mi South 13.8 mph 17.3 mph N/A   Clear
2:54 PM 77.0 °F - 44.6 °F 32% 30.06 in 10.0 mi South 9.2 mph 18.4 mph N/A   Clear
3:14 PM 77.0 °F - 44.6 °F 32% 30.06 in 10.0 mi South 10.4 mph 17.3 mph N/A   Clear
3:34 PM 77.0 °F - 46.4 °F 34% 30.05 in 10.0 mi South 10.4 mph - N/A   Clear
3:54 PM 77.0 °F - 46.4 °F 34% 30.05 in 10.0 mi South 10.4 mph - N/A   Clear
4:14 PM 77.0 °F - 44.6 °F 32% 30.04 in 10.0 mi South 11.5 mph 16.1 mph N/A   Clear
4:34 PM 77.0 °F - 44.6 °F 32% 30.04 in 10.0 mi South 12.7 mph 17.3 mph N/A   Clear
4:55 PM 77.0 °F - 46.4 °F 34% 30.04 in 10.0 mi South 10.4 mph 18.4 mph N/A   Clear
5:14 PM 77.0 °F - 46.4 °F 34% 30.03 in 10.0 mi South 9.2 mph - N/A   Clear
5:34 PM 77.0 °F - 44.6 °F 32% 30.03 in 10.0 mi SSW 12.7 mph 17.3 mph N/A   Clear
5:55 PM 75.2 °F - 46.4 °F 36% 30.02 in 10.0 mi South 9.2 mph - N/A   Clear
6:14 PM 75.2 °F - 46.4 °F 36% 30.02 in 10.0 mi South 8.1 mph - N/A   Clear
6:34 PM 73.4 °F - 46.4 °F 38% 30.01 in 10.0 mi South 9.2 mph - N/A   Clear
6:55 PM 73.4 °F - 46.4 °F 38% 30.01 in 10.0 mi South 8.1 mph - N/A   Clear
7:14 PM 71.6 °F - 48.2 °F 43% 30.02 in 10.0 mi South 6.9 mph - N/A   Clear
7:34 PM 69.8 °F - 50.0 °F 49% 30.02 in 10.0 mi South 4.6 mph - N/A   Clear
7:55 PM 68.0 °F - 50.0 °F 52% 30.02 in 10.0 mi SSE 5.8 mph - N/A   Clear
8:14 PM 66.2 °F - 50.0 °F 56% 30.02 in 10.0 mi South 5.8 mph - N/A   Clear
8:34 PM 64.4 °F - 50.0 °F 59% 30.02 in 10.0 mi South 5.8 mph - N/A   Clear
8:55 PM 62.6 °F - 50.0 °F 63% 30.03 in 10.0 mi SSE 4.6 mph - N/A   Clear
9:14 PM 60.8 °F - 50.0 °F 68% 30.03 in 10.0 mi SSE 4.6 mph - N/A   Clear
9:34 PM 62.6 °F - 50.0 °F 63% 30.03 in 10.0 mi SSE 5.8 mph - N/A   Clear
9:54 PM 60.8 °F - 50.0 °F 68% 30.03 in 10.0 mi SSE 4.6 mph - N/A   Scattered Clouds
10:15 PM 62.6 °F - 50.0 °F 63% 30.03 in 10.0 mi SSE 4.6 mph - N/A   Scattered Clouds
10:34 PM 62.6 °F - 50.0 °F 63% 30.03 in 10.0 mi South 4.6 mph - N/A   Clear
10:54 PM 60.8 °F - 50.0 °F 68% 30.03 in 10.0 mi South 4.6 mph - N/A   Clear
11:15 PM 60.8 °F - 50.0 °F 68% 30.03 in 10.0 mi South 4.6 mph - N/A   Clear
11:34 PM 60.8 °F - 50.0 °F 68% 30.02 in 10.0 mi South 4.6 mph - N/A   Clear
11:54 PM 60.8 °F - 50.0 °F 68% 30.03 in 10.0 mi South 4.6 mph - N/A   Clear